Find Starlink 11307

NORAD ID: 61210 Int'l Des: 2024-171 Owner: SPXS Country: US Constellation: starlink operational
LEOCIRCULAR

Live Position

Loading 3D Globe...

About Starlink 11307

Description loading...

Upcoming Passes

Passes for default location (London). Set your location on the main map for personalized predictions.

Altitude History

Loading altitude history...

Two-Line Element Set

1 61210U 24171L 26110.32820906 .00000162 00000-0 61948-5 0 9997
2 61210 53.1589 331.3520 0001221 79.5186 280.5970 15.69702903 90936
Epoch: Apr 20, 2026 • Age: 14 hours

Current Status

Altitude 363.7 km
Velocity 7.70 km/s
Sub-Earth Point 45.38°N, 159.91°W
Launch Date Sep 20, 2024
Age 1.5 years
Type internet

Technical Details

Classification Payload
Mass 960.00 kg
Dry Mass 910.00 kg
Total Mass 960.00 kg
Length 0.30 m
Diameter 4.10 m
Span 29.00 m
Shape Box + pan
Manufacturer SPXS
Bus Type Starlink V2MD
Phase Status In Orbit
Owner/State SPXS/US

Most Searched